Location: Heppenheim
(49.6410°N, 8.6370°E)
Time: 16:31:33
(UTC+02:00)

ISS - Pass Details

Date: 16 May 2026
Orbit: 414 x 424 km, 51.6° (Epoch: 10 May)

Event Time Altitude Azimuth Distance (km) Brightness Sun altitude
Rises 22:33:21 0° 280° (W) 2,353 0.9 -11.7°
Reaches altitude 10° 22:35:28 10° 284° (WNW) 1,490 -0.1 -11.9°
Maximum altitude 22:38:47 62° 6° (N) 473 -3.3 -12.2°
Drops below altitude 10° 22:42:06 10° 88° (E) 1,491 -1.3 -12.6°
Enters shadow 22:42:07 10° 88° (E) 1,495 -1.3 -12.6°
